GFSSW_925_thetae_009.txt.gz
Theta_e
313 314 314 314 314 314 314 314 313 313 313 313 312 312 311 310 310 314 317 315 315 312 312 316 314 316 316 317 316 318 319 319 322 327 333 332 332 328 326 326 327 335 336 338 340
312 314 314 314 314 314 313 313 313 313 313 313 312 311 311 310 311 316 316 315 313 311 314 316 317 316 317 317 317 317 318 320 325 329 332 330 329 329 328 330 332 337 338 341 340
312 314 313 314 313 313 313 312 312 312 312 312 311 311 310 310 318 323 318 316 311 311 315 314 315 316 317 317 317 317 320 324 327 327 326 326 325 327 330 332 333 340 340 338 338
313 313 313 313 313 313 312 312 312 312 312 312 311 310 309 314 324 322 316 315 311 314 316 315 316 317 318 317 318 319 320 320 319 323 322 323 323 329 326 327 328 334 337 336 339
313 312 313 313 313 312 311 312 311 312 312 311 310 309 313 322 322 320 313 312 311 315 316 316 317 318 317 317 317 319 319 318 316 317 322 324 325 324 326 329 332 336 336 335 337
313 311 313 313 312 311 311 311 311 311 311 310 309 308 317 322 318 322 318 315 316 317 316 317 318 317 317 318 319 319 319 315 319 320 324 327 324 321 328 330 333 335 333 332 332
313 310 313 313 312 311 311 311 311 311 310 309 308 311 318 320 319 322 319 316 317 317 317 317 317 318 320 320 319 317 316 314 321 321 324 321 320 323 329 330 331 331 330 330 328
313 310 313 312 311 311 311 310 311 310 310 307 308 314 320 319 319 319 321 319 319 318 317 318 319 319 319 318 317 317 318 322 322 320 318 317 319 322 327 330 330 330 330 331 330
312 311 312 312 311 310 310 310 310 309 307 308 313 318 323 318 317 318 319 318 318 318 318 316 318 319 319 318 317 317 316 319 319 318 315 317 319 323 325 329 330 332 332 332 330
312 311 311 312 310 310 310 309 309 309 311 312 316 323 321 318 319 317 317 316 318 319 317 318 319 320 319 318 318 318 318 318 317 316 316 318 321 323 324 326 330 331 332 331 331
312 311 311 311 311 310 309 312 317 321 316 321 321 320 319 319 318 318 317 317 319 320 319 319 320 320 319 318 319 318 316 316 317 317 317 320 320 322 325 325 326 328 330 331 331
312 311 311 311 311 310 310 317 322 324 326 318 319 319 318 318 319 318 318 318 319 319 319 319 320 320 319 319 317 317 318 318 319 319 323 321 323 323 325 326 327 327 328 329 330
312 311 312 312 311 309 313 315 322 322 329 322 320 319 319 319 318 318 318 319 319 318 319 320 320 319 319 318 317 318 317 320 321 322 322 322 325 326 325 327 328 328 328 329 330
311 311 311 312 310 315 316 315 315 318 328 320 319 320 319 319 318 318 318 319 319 318 320 320 321 320 319 318 320 319 321 321 320 323 322 321 323 325 327 327 326 328 329 330 330
311 311 311 313 320 317 324 324 321 326 326 319 319 318 319 319 319 319 319 318 319 319 320 321 322 320 319 322 322 326 323 322 323 324 323 323 322 327 328 328 327 327 328 329 330
311 311 311 311 312 319 322 326 327 331 324 319 319 319 320 318 318 320 317 319 320 319 319 321 322 322 322 322 322 323 323 323 322 322 324 321 323 329 329 327 328 329 329 331 332
311 311 311 313 319 320 324 329 329 325 319 318 318 318 319 318 319 319 318 318 317 319 320 320 321 321 321 322 322 322 323 322 323 326 324 322 324 322 322 326 327 329 330 330 329
311 311 311 315 317 322 327 332 326 320 320 317 317 318 319 319 319 320 318 318 318 320 320 320 323 321 322 322 321 322 321 323 321 323 321 323 322 320 323 322 324 328 328 327 326
310 309 312 312 315 319 329 331 324 317 319 318 317 318 319 319 319 321 321 319 319 320 321 321 321 321 321 321 321 321 323 322 324 324 324 320 319 321 323 323 325 328 327 326 324
312 312 315 315 315 320 328 326 321 320 319 318 318 318 320 320 319 321 321 321 322 322 323 321 321 320 320 321 321 322 322 322 321 321 323 320 321 319 325 324 324 328 326 325 322
316 320 318 319 318 323 329 325 320 321 321 319 318 318 320 320 319 320 321 323 323 322 321 320 321 323 321 321 320 322 320 320 322 325 325 321 319 320 318 322 324 326 326 324 322
318 323 323 321 324 327 328 323 319 322 323 320 321 319 320 320 320 319 319 320 322 322 320 320 322 327 323 322 321 322 322 322 322 321 322 326 320 319 321 322 322 324 325 324 322
322 324 324 323 329 334 324 321 320 322 322 322 320 320 319 320 320 320 320 324 323 323 321 323 322 326 324 323 321 319 320 320 319 322 319 328 319 319 319 320 321 322 323 323 323
321 326 325 322 325 324 323 321 321 322 322 322 320 321 323 323 323 324 324 323 322 323 313 318 321 323 325 323 322 322 319 320 319 322 320 320 317 317 318 318 319 320 322 323 323
322 323 324 330 329 325 322 320 319 321 322 324 324 322 322 323 324 325 326 324 322 318 320 323 324 322 323 321 319 319 319 319 319 318 321 318 314 315 316 316 317 318 319 321 322
322 324 324 327 324 323 320 320 320 321 323 324 323 321 322 323 324 323 326 326 326 324 325 323 326 324 325 321 320 320 319 317 318 318 317 316 316 316 318 317 317 318 319 319 320
321 322 325 326 326 323 323 319 320 322 326 323 322 324 323 326 328 326 326 325 325 327 327 326 327 323 321 320 321 324 321 319 318 318 318 319 318 319 318 317 317 317 318 318 318

GFSSW_925_thetae_015.txt.gz
Theta_e
315 314 314 312 313 314 314 314 313 312 312 312 312 313 312 312 310 311 313 312 314 314 313 313 314 315 315 313 313 313 310 310 324 332 330 330 330 326 328 331 330 329 327 336 330
314 314 314 312 311 314 314 313 313 312 311 312 312 313 312 311 310 313 320 316 315 316 313 314 314 312 311 313 313 312 310 314 328 330 331 330 328 328 328 331 332 328 331 334 333
314 314 314 313 312 313 314 313 313 312 311 312 312 312 311 309 315 323 316 316 316 315 313 314 314 313 312 313 313 313 313 321 326 325 328 327 330 329 329 331 331 329 329 333 336
314 313 314 313 312 312 313 313 312 311 311 311 312 311 309 313 322 321 313 315 316 314 314 314 314 314 314 313 313 314 314 315 325 324 326 327 327 330 326 328 329 329 332 331 334
314 313 313 314 312 311 312 312 311 311 311 311 311 310 310 318 323 320 312 314 315 312 314 316 318 316 314 314 314 315 315 317 323 324 325 327 327 324 325 323 326 329 333 334 334
315 314 313 313 312 312 311 311 310 310 311 311 311 309 313 322 321 321 312 311 311 317 317 317 315 315 315 316 316 316 315 315 315 321 324 324 324 326 323 324 325 330 331 334 334
316 314 313 313 312 312 312 312 310 310 310 311 310 309 314 316 320 319 318 311 314 314 315 316 316 317 317 318 319 318 316 316 319 323 324 322 325 327 324 325 326 327 332 333 330
317 315 313 313 312 312 312 312 311 310 310 310 309 310 317 317 319 319 318 317 316 316 316 317 318 318 318 317 318 318 316 315 320 321 323 321 323 329 327 329 327 325 326 329 326
318 315 313 313 312 312 313 312 310 310 310 309 312 312 322 321 319 318 319 321 318 319 318 318 317 318 318 318 318 316 317 322 320 319 320 319 321 328 325 327 325 323 323 323 323
319 316 314 312 312 312 313 311 310 309 314 311 312 316 318 321 321 319 318 318 318 319 319 318 315 317 317 317 320 317 320 321 320 318 319 313 318 326 325 324 327 326 324 323 322
320 316 314 312 311 312 312 315 313 315 313 318 318 318 319 319 319 319 318 318 318 319 317 317 316 318 318 319 319 319 318 319 317 317 314 315 317 321 323 323 324 326 332 327 322
321 316 314 312 311 311 311 314 318 317 321 320 317 317 316 320 319 318 318 316 318 319 319 318 318 318 320 320 319 319 319 318 317 314 313 317 317 317 323 324 322 328 329 330 324
320 317 314 312 311 311 312 314 312 316 322 325 323 319 316 319 319 318 316 316 318 319 319 320 320 321 321 320 319 320 322 319 318 316 317 319 321 322 322 323 325 326 326 327 326
319 317 314 312 310 313 315 320 313 313 324 325 323 316 316 317 319 318 317 316 318 318 321 321 319 320 321 320 318 321 321 322 321 320 319 317 322 325 323 321 321 324 326 326 325
318 317 314 311 314 317 321 325 318 320 330 321 319 318 318 319 318 318 318 318 318 321 319 321 322 322 322 320 320 320 320 321 322 320 324 322 323 324 322 322 322 322 322 321 327
317 317 313 311 310 315 319 323 328 329 329 323 320 319 319 318 317 317 316 318 317 318 319 319 319 320 321 320 319 321 320 320 321 319 325 324 323 326 324 323 323 325 324 324 326
316 316 313 311 316 319 318 323 328 326 321 321 319 319 319 318 318 317 317 317 315 318 321 320 319 321 321 320 321 322 322 323 322 325 324 325 327 323 323 322 322 325 322 323 325
313 316 313 312 312 317 322 329 330 323 322 319 319 319 319 318 317 318 318 316 314 316 317 322 323 320 319 318 321 321 319 324 325 327 329 325 326 323 321 322 323 323 321 322 326
311 313 312 313 311 315 324 331 324 325 318 320 317 318 318 318 316 317 315 315 314 315 317 323 324 322 321 321 320 320 320 319 326 327 330 327 322 321 322 323 324 322 320 325 327
311 312 312 312 311 316 324 325 326 322 322 319 320 317 318 318 318 317 317 316 316 315 320 325 326 323 322 322 319 320 319 320 322 326 323 317 320 322 322 322 324 323 322 326 326
313 315 314 312 313 320 322 323 325 323 322 322 320 317 318 319 319 318 319 318 317 320 322 322 324 326 323 322 318 320 318 318 319 319 321 323 320 317 318 319 322 324 326 326 324
314 317 313 314 318 318 319 322 321 323 323 323 320 319 318 320 319 317 319 324 323 320 321 322 324 323 325 320 319 318 320 320 317 318 319 318 320 317 316 317 318 318 325 324 323
316 317 315 314 315 318 316 320 323 324 324 322 322 320 321 320 322 318 324 323 323 322 321 322 318 317 319 322 321 320 318 318 322 318 319 315 318 316 316 316 317 317 318 322 321
316 318 319 318 315 316 316 319 323 323 324 323 321 321 320 320 320 321 325 324 323 321 316 322 322 318 318 320 322 322 320 318 319 316 316 317 319 315 314 314 315 317 317 317 320
315 316 320 323 321 319 317 319 323 325 323 322 321 321 320 319 320 320 326 324 324 318 321 320 320 320 321 323 322 322 322 320 316 319 317 317 319 317 315 315 315 315 316 317 314
316 317 319 319 320 321 318 322 323 322 323 322 323 320 319 321 322 322 325 325 324 323 321 321 323 323 323 322 321 321 320 319 319 319 317 316 316 315 314 312 313 313 313 315 315
310 314 319 321 320 321 318 323 322 322 322 320 322 322 321 324 323 325 324 324 325 323 322 322 318 317 322 316 316 314 316 319 319 318 318 315 314 315 314 314 312 312 313 313 315

GFSSW_925_thetae_018.txt.gz
Theta_e
314 314 314 314 313 312 312 313 313 312 312 312 311 312 312 311 309 309 310 312 313 310 310 312 313 313 314 312 313 308 309 309 315 330 330 329 330 327 327 330 328 329 334 332 331
315 314 313 314 313 312 310 312 313 312 312 311 311 312 312 310 309 312 320 314 314 314 312 313 314 312 310 311 312 311 310 311 315 329 330 328 328 328 330 332 332 332 330 331 330
315 314 313 313 313 312 311 311 312 312 312 311 311 312 310 309 314 321 317 316 315 315 315 313 313 312 311 312 312 312 312 314 325 324 326 327 328 328 329 332 329 333 332 330 329
316 315 314 312 313 312 311 310 311 311 311 311 311 311 308 314 320 318 314 313 315 315 315 313 313 313 312 313 312 313 313 313 323 325 324 326 327 329 327 328 328 333 329 332 329
318 316 314 312 313 312 311 312 312 311 311 311 311 309 309 316 319 320 314 314 314 314 313 313 316 317 314 312 312 312 313 313 320 322 324 326 327 324 323 325 328 332 333 331 328
320 317 315 313 313 312 311 312 312 311 310 311 311 308 314 317 321 318 313 313 313 312 315 314 316 314 314 315 315 316 314 314 322 323 324 326 326 323 323 325 329 331 333 331 328
322 319 315 314 312 312 311 312 312 311 310 310 310 309 312 309 320 319 314 311 312 314 314 315 316 316 317 317 317 318 315 316 319 320 322 322 324 326 322 325 331 331 332 333 329
322 321 316 314 312 312 311 312 312 311 310 309 308 311 312 311 318 316 315 316 313 315 314 316 317 316 317 316 317 317 313 315 319 321 321 322 328 327 324 325 326 327 331 333 332
320 322 317 315 313 311 311 312 312 310 310 309 311 313 318 317 319 319 318 317 317 315 315 316 316 316 316 317 316 314 316 320 318 319 322 320 329 328 325 326 326 328 331 328 330
319 321 318 315 313 312 311 313 313 312 312 310 311 312 314 318 320 319 318 319 318 316 317 316 312 315 314 315 317 316 320 320 319 318 321 321 324 328 325 323 324 323 323 324 327
318 320 319 315 313 311 311 313 314 316 311 312 311 313 314 316 318 319 319 317 317 317 316 316 314 316 316 315 318 318 318 318 317 317 316 315 323 325 323 324 325 327 326 324 326
316 320 319 315 313 311 311 312 315 314 318 317 317 316 316 317 315 317 317 315 317 318 317 316 316 316 316 319 319 318 318 317 317 315 314 314 325 324 323 325 325 327 327 325 323
314 320 318 315 313 310 311 312 315 313 318 322 321 321 321 316 316 318 315 314 317 318 317 316 317 319 320 319 319 318 319 320 318 313 315 317 319 322 324 324 324 324 325 325 324
315 318 317 315 310 313 313 318 321 313 322 323 324 322 315 315 316 318 316 315 315 316 317 318 318 319 320 320 319 318 318 320 320 317 316 315 320 321 321 320 326 324 324 320 324
314 317 318 314 313 315 319 318 315 319 318 318 323 317 313 317 317 317 317 315 315 319 318 319 320 319 321 320 319 319 317 319 321 319 318 321 321 320 322 318 324 324 325 322 323
311 316 317 313 312 311 314 317 322 322 323 324 318 317 317 317 318 316 316 316 315 317 317 317 318 319 319 320 319 319 319 320 318 319 321 322 319 318 322 321 319 319 325 324 323
308 316 316 314 312 316 319 321 329 326 319 322 318 318 318 318 318 316 316 316 314 316 319 319 318 320 321 319 319 320 319 321 320 320 320 323 322 319 319 320 320 319 319 323 322
306 314 315 315 314 316 322 327 326 322 323 320 318 318 318 317 317 316 315 314 314 315 316 319 320 320 319 319 318 320 317 319 321 323 322 323 325 323 320 319 319 318 319 321 324
305 313 313 315 313 313 322 327 321 324 319 318 318 319 318 317 316 315 315 315 314 313 315 320 321 321 320 320 320 318 318 318 322 322 325 323 322 314 321 321 321 320 319 322 324
308 312 313 315 314 312 322 320 323 322 321 318 319 317 317 317 316 314 315 314 315 313 317 320 322 322 321 320 320 319 317 319 320 325 327 318 319 319 323 323 322 323 319 319 324
308 313 313 314 312 314 323 318 320 321 321 323 321 319 317 316 316 316 316 316 314 315 319 321 319 321 322 321 321 319 317 316 318 317 319 321 319 313 318 319 319 320 320 319 324
309 314 313 313 314 314 320 319 315 320 321 324 322 321 316 317 318 317 318 318 320 320 320 320 320 319 322 320 318 319 318 316 315 316 316 315 319 316 313 315 318 320 320 321 324
310 313 313 313 316 313 316 318 317 318 321 323 322 320 319 319 319 318 320 321 321 320 320 319 319 317 320 319 320 318 316 318 317 313 317 315 317 314 312 313 314 315 319 322 322
311 313 314 314 313 311 315 318 318 316 319 322 323 322 320 319 320 322 324 323 322 320 319 319 317 315 318 318 319 321 321 317 318 315 316 315 317 316 313 312 312 313 316 319 320
310 314 313 314 315 313 313 316 317 317 321 321 322 323 321 318 320 320 324 323 322 317 320 318 319 318 318 321 321 320 320 320 317 316 316 316 316 314 314 312 312 312 313 315 319
310 316 314 316 314 314 313 315 315 315 318 321 323 322 318 317 318 321 324 322 321 321 319 319 318 321 320 318 319 320 318 318 318 318 316 315 315 313 310 310 311 311 312 311 311
306 311 315 315 316 316 317 314 314 314 317 317 321 321 319 318 319 320 321 321 321 320 320 319 316 315 319 314 314 315 315 316 317 317 317 316 314 312 312 313 312 310 312 311 312

GFSSW_925_thetae_021.txt.gz
Theta_e
315 314 314 313 313 313 312 311 309 311 312 312 311 311 311 311 309 309 310 313 312 309 311 313 312 312 312 312 311 306 308 308 309 330 327 328 329 326 329 331 334 333 334 334 332
316 315 314 313 312 313 312 311 311 311 312 311 311 311 311 310 310 312 319 314 314 312 311 313 312 311 309 310 309 309 308 311 310 325 327 327 327 329 331 334 334 333 333 333 332
319 316 315 314 312 312 312 311 312 312 312 311 310 311 309 309 313 319 318 315 314 314 312 313 312 311 311 310 311 310 312 310 320 324 326 325 327 327 330 331 332 336 333 331 331
320 319 316 314 313 312 312 311 311 312 312 311 310 311 308 313 318 316 316 314 314 314 314 312 311 312 311 312 311 313 311 312 315 323 324 327 327 329 328 329 331 330 329 329 329
321 321 318 315 314 312 312 311 311 312 312 310 310 309 310 311 312 318 315 314 314 314 314 312 315 315 315 312 311 311 312 312 315 323 323 325 325 323 324 330 329 329 329 329 328
320 321 321 316 314 312 312 311 311 312 312 310 310 308 312 309 319 319 314 314 314 314 312 312 315 314 314 313 313 314 315 314 317 322 324 324 324 324 324 331 330 331 330 327 326
320 320 321 318 315 313 312 311 311 312 311 310 309 308 310 306 318 317 314 313 313 312 313 315 315 315 316 315 316 317 315 318 320 322 324 322 324 324 324 330 334 333 330 326 327
319 320 320 320 316 314 312 311 311 312 310 310 309 310 313 309 312 315 315 315 312 312 313 314 315 314 316 315 316 316 312 320 320 320 321 322 328 325 325 330 331 332 331 328 328
317 319 319 320 317 314 312 310 311 312 311 310 311 312 316 313 316 317 319 315 316 314 313 315 315 314 314 316 313 312 314 318 321 319 322 322 329 326 325 328 330 329 333 331 329
314 318 319 320 317 314 312 310 312 312 311 310 310 310 310 315 317 319 318 318 316 315 315 315 311 313 313 313 315 316 316 319 318 318 320 322 328 325 325 325 328 326 329 331 330
311 316 318 320 317 314 311 311 312 315 311 309 308 308 310 315 317 317 317 316 316 316 316 315 313 315 315 315 316 317 317 317 317 315 318 321 325 327 324 324 324 324 325 329 331
310 313 318 320 316 314 311 311 312 313 316 314 315 313 314 316 318 315 316 316 316 317 316 315 315 314 315 316 317 317 317 317 316 315 315 314 324 323 324 325 324 326 325 327 329
304 312 317 319 315 313 310 313 315 316 312 316 318 319 319 318 318 315 314 313 316 316 316 316 316 316 318 317 318 317 318 318 319 314 314 317 320 326 324 322 322 323 325 324 326
302 310 316 317 313 311 314 316 314 316 317 319 323 321 319 315 315 316 314 314 314 315 315 315 316 318 318 319 318 318 317 317 318 315 317 315 321 319 323 324 322 324 323 323 323
303 310 316 316 312 315 317 316 314 317 313 312 323 319 312 315 316 316 315 314 314 315 316 317 319 318 319 318 317 318 317 318 319 319 317 319 317 316 320 326 324 322 322 323 320
304 309 316 313 313 312 314 316 320 317 316 318 321 314 314 315 316 315 315 314 313 314 316 315 317 317 317 318 317 318 318 317 316 317 319 319 318 317 320 323 325 321 321 321 319
305 306 313 314 313 314 314 321 326 321 314 321 317 315 314 315 316 316 315 314 314 315 317 318 317 318 319 319 318 318 317 319 319 319 319 321 320 318 317 317 318 316 318 320 319
305 305 311 315 315 315 319 324 326 320 320 321 317 316 316 316 316 316 314 314 313 314 314 317 318 319 319 318 318 318 317 318 320 320 319 322 323 320 318 317 316 316 315 316 319
305 306 311 313 314 313 319 326 321 321 321 315 317 318 317 317 316 315 313 313 312 312 315 317 318 320 319 319 318 317 317 315 320 319 322 318 320 313 315 319 317 317 319 320 318
306 307 311 312 315 312 321 321 321 320 321 322 318 317 317 316 316 314 314 314 314 312 313 317 320 321 320 319 319 318 316 317 317 323 324 319 317 317 320 321 320 319 318 320 321
305 309 310 311 313 313 317 317 317 318 320 323 322 318 317 316 315 314 314 314 314 313 314 319 316 317 321 318 318 318 317 315 316 316 318 318 317 312 316 319 319 317 317 316 321
305 310 311 312 316 314 316 316 315 315 318 321 322 323 319 315 315 315 315 315 314 317 317 317 316 316 318 318 318 317 317 314 315 316 314 314 316 314 312 313 313 315 317 315 318
305 310 311 312 317 316 314 316 317 315 317 319 322 321 317 315 316 315 316 316 318 316 318 318 317 317 318 318 318 319 317 316 315 311 316 315 315 312 311 310 310 315 315 316 318
307 310 312 313 313 314 314 315 318 317 316 317 321 322 321 318 317 318 320 322 320 319 317 315 315 316 318 318 318 320 319 316 316 314 314 314 314 314 314 312 311 310 312 316 319
306 309 311 313 314 313 313 314 317 318 316 315 317 321 322 320 319 319 323 322 321 317 318 318 318 314 314 315 319 319 318 315 316 315 315 315 315 315 313 311 309 309 313 317 318
306 312 311 311 312 312 314 314 315 316 317 317 315 319 317 321 317 318 321 321 321 320 318 316 316 317 320 317 317 319 317 316 316 316 314 314 314 310 311 310 309 310 309 310 311
304 306 312 311 312 313 313 313 313 315 315 315 317 319 320 318 316 314 318 318 318 319 317 316 314 314 317 314 314 314 314 315 315 315 315 315 313 311 313 312 310 310 310 310 309